Theta_e
302 302 302 302 303 303 303 303 304 304 305 305 305 305 306 307 307 308 309 309 310 311 311 311 311 311 311 311 312 313 314 314 315 315 315 315 315 316 316 317 317 317 318 318 318 318 318 318 318 318 318 318 317 317 318 318 318 318 318 318 317 317 317 318 318 319 319 320 321 321 322 323 323 324 325 325 325 326 325 325 324 324 323 323 322 321
300 300 301 301 302 302 303 303 303 304 304 305 305 305 305 306 306 307 307 308 309 310 310 311 311 311 311 311 311 312 312 313 313 314 314 314 315 315 316 316 317 317 317 317 317 317 317 317 317 317 317 317 317 317 317 317 318 318 318 318 318 317 317 317 318 318 319 319 320 321 321 322 323 324 324 325 325 326 326 325 324 324 323 322 321 321
299 299 300 300 301 302 302 302 302 303 303 304 304 304 304 305 305 305 305 306 307 307 308 309 309 310 310 311 311 311 311 311 312 312 313 314 314 314 315 315 316 316 316 316 316 317 317 317 317 317 317 317 317 317 317 317 317 317 318 318 318 318 317 317 318 318 318 319 319 320 321 322 323 323 324 324 325 326 326 325 324 323 323 321 320 320
298 298 299 299 299 300 300 300 300 300 301 301 302 302 303 303 304 304 305 306 306 307 308 309 309 309 310 310 311 311 310 310 311 311 311 312 313 313 314 314 314 314 315 315 315 316 316 316 316 316 316 316 316 316 317 317 317 317 317 318 318 318 318 317 318 318 318 318 319 319 320 321 322 323 324 325 325 326 326 325 324 323 322 320 320 320
297 297 297 297 297 297 297 298 298 298 299 299 300 301 301 302 303 304 305 306 306 307 308 308 309 309 309 309 310 310 310 310 311 311 311 312 312 313 313 313 313 313 313 314 314 315 315 315 315 316 316 315 316 316 316 316 317 317 317 317 318 318 318 318 318 318 318 318 318 319 319 320 321 323 324 325 325 325 325 324 323 322 321 320 319 319
296 296 296 296 296 296 296 297 297 297 298 299 299 300 301 301 302 303 304 304 304 304 305 305 306 307 307 308 309 310 310 310 311 311 311 312 312 312 312 312 312 312 312 312 313 313 314 314 314 314 314 314 314 314 315 315 316 316 316 317 317 317 318 318 318 318 318 318 318 318 318 319 321 322 323 324 324 324 323 323 322 321 320 319 319 319
295 295 295 296 296 296 296 297 297 297 298 299 299 299 300 300 301 301 301 301 302 302 302 303 304 305 306 307 308 309 309 310 310 310 310 311 311 311 311 310 310 310 310 311 311 312 313 313 313 313 313 313 313 313 314 314 315 315 316 316 316 317 317 317 318 318 318 318 318 318 318 319 319 321 322 324 324 324 323 322 321 320 319 319 319 319
295 295 295 295 295 296 296 297 297 298 298 299 299 300 300 300 300 300 300 301 301 302 302 303 304 305 306 307 308 309 309 308 307 307 308 309 309 309 309 308 308 308 309 310 311 311 312 312 312 312 312 312 312 312 312 313 314 314 315 316 316 316 317 317 317 318 318 318 318 318 318 318 319 320 321 323 324 324 323 322 321 320 319 319 319 318
295 295 295 295 296 296 297 297 297 298 298 299 300 300 300 300 300 301 301 301 302 303 304 304 304 305 305 306 306 307 307 307 307 307 307 307 307 307 307 307 308 308 308 310 310 311 311 312 311 311 311 311 311 311 311 312 312 313 314 315 315 316 316 316 317 317 317 318 318 318 318 318 318 319 321 322 323 324 323 322 321 320 319 319 318 318
296 296 296 296 296 297 297 298 298 298 298 299 299 300 300 300 301 301 301 302 302 303 303 303 303 303 303 303 303 304 304 305 305 305 306 306 306 307 307 307 308 308 309 310 311 311 311 311 311 311 311 311 311 311 311 311 311 312 312 313 314 314 315 315 316 316 317 317 317 318 318 318 318 319 320 321 322 323 323 322 321 320 318 318 318 317
296 296 296 296 296 297 297 297 298 297 297 298 298 298 298 299 300 300 301 301 301 300 300 300 300 301 301 301 302 302 303 303 304 304 304 305 305 306 306 307 308 309 310 310 311 311 311 310 310 310 310 310 310 310 310 310 310 310 311 311 312 313 313 314 315 315 316 317 317 317 318 318 318 318 319 320 321 322 323 322 321 319 318 318 317 317
296 296 296 296 296 296 296 296 296 296 296 296 297 297 297 297 298 298 299 299 299 299 299 299 300 300 301 302 303 303 304 304 304 304 304 305 305 306 306 307 308 309 310 310 310 310 310 310 310 310 310 310 309 309 309 309 309 309 309 310 310 311 312 313 314 315 315 316 317 317 318 318 318 318 319 320 321 321 322 322 320 318 317 317 317 315
295 295 295 295 295 295 295 295 295 295 295 295 296 296 296 296 297 297 298 298 299 299 300 300 301 302 303 304 304 305 305 305 305 305 306 306 306 307 307 308 308 309 309 309 309 309 309 309 309 309 309 309 309 309 309 309 309 309 309 309 309 310 311 312 313 314 315 316 316 317 317 318 318 318 318 319 320 321 321 320 319 318 317 317 316 314
294 294 294 294 294 294 294 295 295 295 295 295 295 296 296 297 297 297 298 298 299 299 300 301 302 303 303 304 304 304 304 304 305 305 306 306 307 307 308 308 308 308 308 308 308 308 308 308 308 308 307 307 307 308 308 308 308 309 309 309 309 310 310 311 312 313 314 315 316 316 317 317 318 318 318 319 320 320 320 319 318 317 317 316 314 313
294 294 294 294 294 294 294 294 295 295 295 295 295 296 296 297 297 298 298 299 300 300 301 302 303 302 301 301 301 301 302 302 303 304 305 306 307 307 308 308 308 307 307 307 307 307 307 306 306 306 306 306 306 306 307 307 308 308 309 309 309 310 310 311 312 313 314 315 315 316 316 317 317 318 318 319 319 320 319 318 317 316 315 314 313 312
293 293 294 294 294 294 294 294 295 295 295 295 296 296 297 297 298 298 299 300 300 301 301 301 301 301 300 300 300 300 301 302 303 304 305 306 306 306 306 306 306 305 305 305 305 305 305 305 305 305 305 305 305 305 306 306 307 307 308 309 309 309 310 310 311 312 313 314 314 315 316 316 317 317 318 319 319 318 318 317 316 315 314 312 311 311
293 293 294 294 294 294 294 294 294 295 295 295 296 296 297 297 298 299 299 300 300 301 301 301 301 301 300 300 300 301 302 303 304 305 305 305 305 304 304 304 304 304 304 304 304 304 304 304 304 304 304 304 304 305 305 305 306 307 307 308 308 309 309 310 311 311 312 313 313 314 315 316 317 317 318 318 317 317 317 316 315 314 312 311 310 310
292 293 293 294 294 294 294 294 294 295 295 295 296 296 297 297 298 299 299 300 300 300 301 301 301 301 301 302 302 302 304 304 303 302 302 302 302 302 302 302 302 303 302 302 302 302 302 303 303 303 303 303 304 304 304 305 305 306 307 307 308 308 309 309 310 311 311 312 313 314 315 316 317 317 317 317 316 316 315 314 313 312 311 310 309 309
292 292 292 293 293 293 294 294 294 295 295 296 296 297 297 298 298 298 299 299 300 300 300 301 301 302 302 302 302 302 302 301 300 300 300 300 300 300 300 300 301 301 301 301 301 302 302 302 302 302 303 303 303 304 304 304 305 305 306 306 307 307 308 309 309 310 311 312 312 313 314 315 316 317 316 316 315 314 314 312 311 310 310 309 308 308
292 292 292 292 293 293 294 294 295 295 296 296 297 297 297 298 298 298 299 299 299 299 300 301 301 301 301 301 301 300 300 300 299 300 300 300 300 300 301 301 301 301 301 301 301 301 302 302 302 302 302 303 303 303 303 304 304 304 305 306 306 307 307 308 308 309 310 311 312 313 314 315 316 316 315 315 314 313 312 311 310 309 309 308 307 306
292 292 292 292 293 294 294 295 295 295 295 296 296 296 297 297 298 298 298 298 299 299 299 300 300 300 300 300 300 300 300 300 300 300 301 301 301 301 301 301 301 301 301 301 301 301 302 302 302 302 302 302 303 303 303 303 303 304 304 305 305 306 307 307 308 309 310 311 312 313 314 315 315 315 314 313 312 311 311 310 309 308 307 306 306 305
291 292 292 292 293 294 294 295 295 295 296 296 296 296 297 297 297 297 297 297 297 298 298 298 299 299 299 299 299 299 300 300 300 301 301 301 301 301 301 301 302 301 301 301 301 302 302 302 302 302 302 302 302 302 302 302 302 303 303 304 305 306 306 307 308 309 310 311 312 313 314 314 314 313 312 311 310 310 309 308 307 306 305 305 304 304
291 291 292 293 293 294 295 295 295 295 296 295 295 295 295 295 295 295 294 295 295 296 296 296 297 297 297 298 298 299 299 300 300 301 301 301 302 302 301 301 301 301 301 301 301 301 301 302 301 301 301 301 301 301 301 301 301 302 303 303 304 305 306 307 308 310 311 312 312 312 312 312 311 311 310 309 308 307 306 306 305 304 304 303 303 302
291 291 292 293 294 294 295 295 295 295 294 294 294 293 293 293 293 293 293 294 294 295 295 295 296 296 296 297 297 298 298 299 300 300 301 301 301 302 301 301 301 301 301 301 301 301 301 301 301 301 300 300 300 300 300 300 301 301 302 303 304 305 307 308 310 311 312 312 311 311 310 310 309 308 307 306 306 305 304 303 303 302 302 301 301 301
291 292 292 293 294 294 294 294 294 294 293 293 293 293 293 293 294 294 294 294 294 295 295 295 296 296 297 297 297 298 298 299 300 300 300 301 301 301 301 301 300 300 300 301 300 300 300 299 299 299 299 299 299 299 299 300 300 301 303 304 305 306 308 310 311 311 311 310 309 308 307 307 306 305 305 304 303 303 302 301 301 300 300 300 300 299
291 292 292 293 293 294 294 293 293 293 293 293 293 293 293 294 294 294 294 294 295 295 295 296 296 296 296 296 296 297 297 297 298 299 299 300 299 300 300 300 300 300 300 300 299 298 297 297 297 297 297 297 297 298 299 300 301 302 304 305 306 308 309 310 310 309 308 307 306 305 305 304 304 303 302 302 301 301 300 299 299 299 299 298 298 298
291 292 292 292 293 293 293 292 292 292 292 293 293 293 293 293 293 294 294 294 295 295 294 294 294 294 294 293 293 294 294 295 295 296 297 298 299 299 299 299 299 299 299 299 298 296 295 294 294 294 295 296 297 298 300 301 303 304 305 306 308 308 309 308 307 307 305 304 304 303 303 302 302 301 301 300 300 299 299 298 298 298 298 297 297 296
291 291 291 292 292 292 292 292 292 292 292 292 292 292 292 293 293 293 293 294 294 293 293 293 293 293 293 293 293 293 294 294 295 295 296 297 298 299 299 297 297 297 298 298 296 294 293 292 292 293 295 296 298 300 302 303 304 305 306 307 307 307 307 306 305 304 303 302 302 301 301 301 300 300 299 299 299 298 298 298 297 297 296 296 295 295
290 290 290 291 291 292 292 292 292 291 291 291 291 292 292 292 292 292 292 293 293 293 293 293 293 293 293 293 293 292 293 293 294 294 295 297 298 298 297 296 295 296 297 296 293 292 291 291 292 293 295 296 298 301 302 303 304 304 305 305 305 304 304 303 302 302 301 301 300 300 300 300 299 299 299 298 298 298 297 297 297 296 296 295 295 295
290 290 290 291 291 291 291 291 291 291 291 291 291 291 291 291 292 292 292 292 293 293 293 293 292 292 292 292 292 291 292 292 293 295 296 297 297 296 295 295 295 296 297 294 292 290 289 290 291 292 293 295 297 299 300 301 302 302 302 302 302 302 302 301 301 300 300 300 300 300 299 299 299 299 298 298 298 297 297 296 296 295 295 295 294 294
289 289 290 291 291 291 291 291 291 291 291 291 291 291 291 291 291 292 292 292 292 292 292 291 291 291 291 291 291 291 291 292 293 294 295 296 296 296 296 295 295 296 296 295 293 291 289 289 289 290 291 292 294 296 297 298 299 300 300 300 300 300 300 300 300 300 299 299 299 299 299 299 298 298 298 297 297 296 296 296 295 295 294 294 294 294
289 289 290 290 291 291 291 291 291 291 291 291 291 291 291 291 291 291 292 292 291 291 290 290 290 290 290 290 290 290 291 291 291 292 293 294 295 296 296 296 296 296 295 295 293 291 290 289 288 289 290 291 292 293 294 295 297 298 299 299 299 299 299 299 299 299 299 299 299 298 298 298 298 297 297 296 296 296 295 295 294 294 293 293 293 293
289 289 290 291 291 291 291 291 290 290 290 290 290 290 290 290 291 291 291 291 290 290 289 289 289 289 289 289 289 290 290 290 290 291 292 293 294 295 296 296 296 295 295 293 291 290 288 288 287 287 289 290 290 291 292 293 295 296 297 298 298 299 299 299 298 298 298 298 297 297 297 297 296 296 296 296 295 295 295 294 294 293 293 293 293 293
288 289 290 291 291 291 291 290 290 290 290 290 290 290 290 290 290 290 290 290 289 288 288 288 288 288 288 288 288 289 289 289 289 290 291 292 293 294 295 295 295 295 294 291 289 287 286 287 287 287 288 288 288 289 290 291 292 294 295 296 296 297 297 297 297 297 297 297 296 296 296 296 296 295 295 295 295 295 294 294 293 293 293 293 292 292
288 289 290 290 290 290 290 290 289 289 290 289 289 289 289 289 289 289 289 288 288 288 287 287 287 287 287 287 288 288 288 288 289 289 290 290 291 292 293 293 294 294 293 291 289 287 286 287 287 288 287 287 287 287 288 289 290 292 293 294 294 295 295 295 295 295 295 295 295 295 295 295 295 295 295 294 294 294 294 293 293 292 292 292 292 292
288 289 290 290 290 289 289 289 289 289 289 289 289 289 289 289 289 288 288 288 287 287 287 287 286 286 286 287 287 287 287 288 288 288 288 288 288 289 290 291 292 293 293 292 290 289 288 288 288 289 288 287 286 285 285 287 289 291 292 292 293 293 293 293 294 294 294 294 294 294 294 294 294 294 294 294 294 294 294 293 292 292 292 292 292 292
289 289 290 290 289 289 289 289 289 288 289 289 289 288 288 288 288 288 288 287 287 287 286 286 286 286 286 286 286 286 286 286 286 286 285 285 286 287 288 289 290 291 292 292 291 290 289 288 288 288 288 287 285 284 284 286 288 289 290 291 292 292 292 293 293 293 293 293 293 293 293 293 293 293 294 294 294 294 293 293 292 292 292 292 291 291
289 289 290 289 289 289 289 288 288 288 288 288 288 288 288 288 288 288 287 287 287 286 286 286 285 285 285 285 285 286 285 285 284 284 284 284 285 286 287 288 289 291 292 292 292 291 290 289 288 287 287 286 285 285 284 286 286 287 287 289 290 291 292 292 292 293 292 292 293 293 293 293 293 293 293 294 294 293 293 293 292 292 291 291 291 291
289 289 289 289 289 288 288 288 288 288 288 288 288 288 288 288 287 287 287 286 286 286 285 285 285 285 285 285 285 285 284 284 283 283 283 284 284 285 286 288 289 290 291 291 291 291 290 289 288 287 287 286 285 285 285 286 285 285 285 287 288 289 290 291 292 292 292 292 292 292 292 293 293 293 293 293 293 293 293 292 292 292 291 291 291 291
289 289 289 289 288 288 288 288 288 288 288 288 288 288 287 287 287 287 286 286 285 285 285 285 285 285 285 285 285 284 284 283 283 283 283 284 284 285 286 287 288 289 290 290 290 290 289 289 288 287 287 286 285 285 285 285 285 285 286 286 285 285 287 289 290 291 291 292 292 292 292 292 292 293 293 293 293 293 293 292 292 291 291 291 291 290
289 289 289 288 288 288 288 288 288 288 288 288 287 287 287 287 286 286 286 285 285 285 285 285 285 285 285 285 284 284 283 283 283 283 283 283 284 285 286 287 288 289 289 289 289 289 288 288 287 287 286 285 286 286 286 285 285 286 287 285 283 282 284 286 288 289 290 291 291 291 292 292 292 292 292 292 293 293 292 292 292 291 291 291 290 290
288 288 288 288 288 288 288 288 288 288 287 287 287 287 286 286 286 286 286 285 285 285 285 285 285 285 285 285 284 284 283 283 282 283 283 283 284 285 286 287 288 288 288 288 288 287 287 287 286 286 285 285 286 286 285 285 286 287 286 284 282 282 283 284 286 288 289 290 290 291 291 291 291 291 291 292 292 292 292 292 292 291 291 290 290 290
288 288 288 288 288 288 288 288 288 287 287 287 286 286 286 286 286 286 285 285 285 285 285 285 285 285 284 284 284 284 283 283 282 282 282 283 283 284 285 286 287 287 287 287 286 286 286 286 285 285 285 286 286 285 285 285 285 285 284 284 284 284 282 282 284 286 288 288 289 290 290 290 290 290 290 290 291 291 291 291 291 291 291 291 290 290
287 287 287 288 288 288 288 287 287 287 287 286 286 286 286 286 286 285 285 285 285 285 285 285 285 285 284 284 284 284 283 283 282 282 282 282 283 283 284 284 285 285 286 286 285 284 284 283 283 284 285 286 286 285 285 284 284 283 283 284 285 284 283 281 282 284 285 286 288 288 289 289 289 289 289 289 289 290 290 290 291 291 291 291 291 290
287 287 287 287 287 287 287 287 287 287 286 286 286 286 286 286 285 285 285 284 284 284 284 284 285 284 284 284 284 283 283 282 282 282 282 282 282 282 283 283 283 284 284 284 283 283 283 282 282 283 284 285 285 284 284 283 283 283 283 283 282 281 280 280 282 283 284 285 286 287 288 289 289 289 288 287 288 288 289 290 290 290 291 291 291 291
286 286 286 287 287 287 287 287 287 286 286 286 286 286 285 285 285 285 284 284 284 284 284 284 284 284 284 284 284 283 283 282 282 282 281 281 281 282 282 282 282 282 282 282 282 282 282 282 282 283 283 283 283 283 283 283 282 282 281 280 280 280 280 280 281 282 283 284 284 285 286 288 288 287 286 285 286 286 287 288 289 289 290 290 290 290
286 286 286 286 287 287 287 287 286 286 286 286 285 285 285 285 285 285 284 284 284 284 284 284 284 284 284 284 284 283 283 282 282 282 281 281 281 281 281 281 281 281 281 281 281 282 282 282 282 283 283 282 281 281 281 282 282 281 280 280 280 280 280 279 280 282 283 284 284 284 285 286 286 285 284 284 284 285 285 286 287 288 288 289 289 290
285 286 286 286 287 287 287 286 286 286 285 285 285 285 285 285 285 285 284 284 284 284 284 284 284 284 283 283 283 283 283 282 282 282 281 281 281 281 281 281 281 281 281 281 281 281 282 282 282 282 282 282 281 280 280 280 280 280 280 280 280 280 279 278 279 280 282 283 284 284 284 284 284 283 282 282 282 283 283 284 285 286 286 287 288 288
285 285 286 286 287 287 286 286 286 285 285 285 285 285 285 285 285 285 284 284 284 284 284 284 284 284 284 283 283 283 283 282 282 281 281 281 281 281 281 281 281 281 281 281 281 281 281 281 281 281 281 281 281 280 279 279 279 279 280 280 280 279 278 278 278 280 281 282 282 283 283 284 284 283 283 282 281 281 281 282 283 284 284 285 286 286
285 285 286 286 286 286 286 286 285 285 285 285 285 285 285 285 284 284 284 284 284 284 284 284 284 284 284 283 283 283 283 282 282 281 281 281 281 281 281 281 281 281 282 282 281 281 281 281 281 281 281 281 280 279 278 278 278 278 279 279 279 279 278 278 278 279 281 281 282 282 282 283 283 283 283 282 280 279 280 281 282 282 283 284 284 284
285 285 286 286 286 286 286 285 285 285 285 285 285 285 284 284 284 284 284 284 284 284 284 284 284 284 284 283 283 283 282 282 281 281 281 281 280 280 280 280 280 281 281 280 279 279 279 280 280 280 280 280 280 279 278 278 278 278 278 277 277 278 278 278 278 279 280 280 281 281 282 282 282 282 282 281 280 279 279 279 280 281 282 282 283 283
Wind_Speed
27 27 29 31 31 31 32 32 32 32 32 30 29 28 30 30 31 32 32 33 32 32 31 32 32 33 34 36 36 37 38 39 39 40 41 43 43 42 42 42 42 42 43 43 44 44 44 44 45 45 45 45 45 45 45 45 46 46 47 47 47 46 46 46 47 47 47 47 47 47 48 48 47 47 46 45 45 44 45 45 46 46 47 49 49 49
28 27 28 28 29 30 30 28 27 27 27 27 26 26 27 29 31 32 32 32 31 30 30 30 32 33 35 35 36 36 36 37 39 40 42 43 43 44 44 44 43 43 43 43 44 44 44 44 44 44 44 45 45 44 44 44 44 44 44 44 44 44 44 44 45 46 47 47 46 46 47 48 48 47 47 46 45 45 45 45 45 45 46 46 47 48
31 31 29 26 25 27 28 25 24 24 25 25 26 27 28 30 31 31 31 31 31 31 31 32 33 33 33 34 34 35 36 37 38 40 42 42 43 43 43 43 42 41 42 42 43 43 43 43 43 43 43 44 44 44 43 43 43 43 43 43 43 43 43 43 44 45 46 46 46 45 46 46 47 47 47 47 46 46 46 45 45 44 45 44 45 46
31 31 31 26 25 26 26 25 25 26 27 27 29 30 30 30 30 30 30 29 29 30 31 32 32 32 32 33 34 35 36 37 38 39 40 41 41 41 40 40 39 39 40 41 42 43 43 43 42 42 42 42 43 43 43 43 43 43 43 44 43 43 42 43 43 44 45 47 46 46 45 45 46 47 47 47 47 46 46 45 44 43 43 43 43 44
28 28 28 28 29 28 24 25 26 27 29 30 30 30 30 29 28 28 28 28 28 29 30 30 30 30 31 33 34 35 35 36 37 38 39 39 38 38 37 37 37 38 39 41 43 43 44 44 43 43 42 42 41 41 41 42 42 43 44 44 44 43 43 43 43 44 45 46 47 47 46 45 45 46 47 48 47 47 46 45 44 43 42 42 43 44
28 26 26 26 28 27 23 24 25 26 27 28 28 28 28 28 28 28 28 28 28 29 29 29 30 31 32 33 34 35 35 36 36 36 36 36 36 35 35 36 37 39 40 42 43 44 44 44 44 43 41 40 40 39 40 40 41 42 43 44 44 43 43 43 43 44 44 46 47 48 47 46 46 46 47 48 48 47 46 45 44 43 42 42 43 44
28 27 25 25 25 24 22 23 24 24 24 27 29 28 27 27 28 28 29 29 30 30 31 32 32 32 32 32 32 33 34 34 34 33 33 33 33 34 35 37 39 40 41 42 43 43 44 43 42 40 39 38 38 38 37 37 38 39 41 42 43 43 43 44 44 44 44 45 47 48 48 47 47 46 47 48 49 48 46 45 44 44 43 43 43 44
26 27 26 26 25 24 24 23 24 23 23 27 29 29 29 29 28 29 30 30 31 31 31 31 31 30 29 29 29 29 30 31 32 31 30 30 31 33 35 37 39 41 41 42 42 41 41 40 38 37 36 36 36 36 35 35 36 37 38 40 41 42 43 43 44 44 45 45 47 48 49 48 48 47 47 48 49 49 47 46 45 44 43 43 43 45
24 26 27 26 26 26 26 25 24 22 22 25 26 27 28 29 30 30 30 30 29 28 27 27 27 28 28 28 28 29 31 32 33 32 31 32 33 34 36 38 39 40 40 39 39 38 38 36 35 34 34 34 34 34 34 34 34 35 36 38 39 40 41 42 43 44 44 45 46 48 49 49 49 48 47 48 49 49 49 48 46 45 43 43 43 45
23 24 26 26 24 23 23 26 25 23 23 25 26 27 26 27 27 27 27 28 27 27 27 27 28 29 31 33 33 33 33 34 34 35 35 35 36 37 37 39 39 39 38 37 37 36 36 34 33 33 33 33 33 33 33 33 33 34 36 37 38 39 40 41 43 44 45 45 46 48 49 50 50 49 48 48 49 50 51 51 49 46 43 43 43 46
21 23 24 24 22 21 22 23 23 23 23 25 27 27 27 26 25 21 18 21 27 31 31 31 31 31 32 34 35 34 34 35 35 36 35 35 36 37 37 38 37 36 35 35 35 35 34 33 32 32 32 31 31 32 32 32 33 34 35 36 37 38 39 40 42 44 45 46 47 48 50 50 50 50 50 49 50 51 52 53 51 47 44 43 44 48
18 20 21 21 22 22 23 23 23 23 23 23 22 21 25 27 26 23 18 17 23 30 31 32 31 31 31 32 32 32 32 33 33 32 31 32 33 33 34 33 33 32 32 32 32 32 32 31 31 30 30 31 31 32 32 32 33 33 34 35 36 36 38 39 41 43 44 45 47 48 50 51 51 51 51 51 51 52 53 54 51 47 44 44 47 51
19 20 20 21 21 22 22 23 24 23 22 20 15 13 17 24 26 24 23 22 24 27 29 30 30 30 29 28 27 27 28 29 29 30 29 29 29 29 29 28 28 29 30 30 30 30 30 29 29 29 30 31 32 32 32 32 33 33 33 33 34 34 35 37 39 40 42 44 46 48 49 50 51 51 51 52 52 53 54 52 49 46 45 47 51 53
18 19 18 15 16 18 20 20 18 16 17 19 19 20 23 25 24 23 23 23 25 27 28 29 29 29 29 27 26 26 28 30 32 32 30 28 27 27 27 27 27 29 30 29 29 30 31 30 30 30 31 32 32 33 32 32 32 33 32 32 32 32 33 34 36 38 40 42 44 46 48 50 51 51 51 52 53 53 52 49 46 44 46 50 53 53
15 15 12 10 11 14 18 18 16 16 19 22 24 25 25 24 23 22 20 19 23 27 26 25 25 28 30 30 29 29 29 30 29 28 26 25 26 27 27 26 27 29 29 28 29 31 32 31 32 33 34 34 34 34 33 33 33 33 32 32 32 31 31 32 33 35 37 40 43 45 47 49 50 51 51 51 51 51 50 47 44 44 48 52 52 50
16 14 10 11 11 13 19 20 19 19 22 24 24 24 22 21 21 21 19 18 21 23 18 12 12 17 24 29 29 28 27 27 25 22 20 19 22 25 26 25 25 26 27 28 29 32 34 34 35 35 35 36 36 35 34 33 33 32 32 32 32 32 31 31 32 33 36 38 41 45 47 49 50 51 51 50 49 48 47 45 45 48 51 51 49 46
18 14 10 10 10 13 22 24 23 22 23 24 23 22 20 19 19 20 19 19 18 15 10 7 7 8 10 18 24 25 21 19 17 15 15 16 21 27 28 26 25 25 29 31 32 34 36 37 37 37 37 37 37 36 35 33 33 32 32 32 32 32 32 32 32 33 35 37 40 44 47 49 50 50 49 47 45 44 44 46 49 52 53 50 47 44
18 15 12 10 11 16 23 25 25 24 23 22 22 23 23 23 23 22 21 19 15 10 6 6 6 6 6 7 15 21 16 17 19 20 21 23 28 34 35 32 30 29 32 34 37 38 39 40 40 40 39 38 37 36 35 34 34 33 33 33 33 33 33 32 33 33 35 37 40 43 46 48 48 48 46 44 43 43 44 48 52 54 53 49 46 44
18 19 17 14 16 21 24 24 23 22 21 21 22 23 23 23 24 23 22 20 16 12 9 8 7 6 6 6 15 24 25 26 28 27 24 25 32 39 39 35 33 33 34 35 37 39 40 40 41 40 39 39 37 36 36 35 35 35 34 34 34 34 33 33 33 34 35 37 39 42 44 46 46 45 43 43 44 45 47 49 51 51 50 48 46 45
20 22 23 22 22 22 22 22 23 23 23 23 23 22 20 20 20 20 19 19 19 17 14 9 8 9 10 16 26 33 34 32 29 24 20 21 27 33 34 31 29 29 31 33 34 36 37 38 39 38 38 37 37 36 36 35 35 34 34 34 34 34 33 33 33 33 34 36 38 40 42 43 43 42 43 44 45 47 48 48 48 47 46 46 44 43
21 23 26 26 23 20 18 22 26 29 29 28 27 24 20 18 17 18 19 18 18 18 18 12 11 15 19 23 29 34 34 30 25 20 18 17 22 27 29 26 24 24 26 28 30 32 33 35 36 36 36 36 35 35 35 35 34 34 34 34 33 33 32 32 31 31 32 33 35 37 38 39 40 41 43 44 45 45 45 45 44 43 42 41 40 40
24 25 30 32 30 26 24 26 29 31 29 27 24 20 18 16 15 15 17 19 20 19 19 17 21 26 27 30 33 34 32 28 24 20 16 12 13 21 28 24 21 21 21 23 26 29 31 32 33 34 35 35 35 35 34 34 33 33 32 32 32 32 31 29 28 28 28 29 31 32 33 35 37 40 41 42 42 42 42 41 41 40 40 39 38 37
29 30 33 33 32 30 29 28 27 26 25 23 21 20 20 20 20 22 26 26 25 25 25 29 31 31 30 31 32 33 31 29 27 22 14 10 10 16 25 21 17 16 17 20 24 27 29 30 32 33 33 33 33 34 34 33 32 32 31 31 30 29 27 26 24 23 23 23 24 26 29 32 35 37 38 38 39 39 39 39 39 39 39 38 37 37
32 33 33 31 30 29 28 26 25 25 24 25 27 28 28 28 28 28 30 29 28 27 27 28 28 28 29 30 30 30 29 28 26 21 11 6 8 14 18 15 12 13 16 21 24 25 26 28 30 31 32 32 32 33 32 32 31 30 29 28 27 25 23 21 19 18 17 19 22 26 29 32 33 35 36 36 37 38 38 39 38 38 38 37 36 36
33 32 31 30 30 29 29 27 27 27 28 29 29 29 29 30 30 30 30 30 28 27 25 22 19 16 18 22 22 21 21 20 18 15 9 3 2 8 15 14 12 12 16 23 24 23 24 25 28 29 29 30 30 30 29 28 27 26 25 23 21 20 18 16 15 16 19 23 27 30 32 33 33 34 35 36 37 37 37 37 37 36 36 35 34 33
34 33 33 33 32 31 31 31 31 31 32 31 30 29 29 29 28 27 26 24 22 19 16 11 8 7 10 12 13 16 21 22 21 17 12 5 2 7 18 21 18 15 18 22 22 20 19 21 23 24 24 24 25 24 24 23 22 21 20 19 17 17 17 17 20 23 26 29 32 33 34 34 34 35 35 36 36 36 36 35 35 34 33 32 31 30
32 32 32 32 31 31 30 30 30 31 31 31 31 30 30 29 25 21 17 16 15 13 9 8 8 9 9 8 10 16 24 25 24 22 19 12 6 7 17 21 18 15 16 17 17 15 14 15 17 18 18 19 19 18 18 17 17 16 16 16 17 19 21 24 27 30 32 33 34 34 34 34 34 34 34 35 34 34 34 34 33 32 31 30 29 28
29 29 29 29 28 28 28 28 28 29 29 30 31 31 30 28 22 15 12 16 17 14 9 9 10 9 8 7 10 16 23 23 23 23 22 16 9 8 14 14 11 10 11 11 11 12 11 12 14 15 15 14 13 12 10 10 10 11 13 17 21 24 27 29 31 33 33 34 34 33 33 33 34 34 33 33 33 33 33 33 32 31 31 30 30 29
28 28 28 27 26 26 26 26 27 28 29 29 30 29 29 27 21 17 18 21 19 14 10 9 9 8 8 8 12 18 20 19 21 22 20 13 7 6 8 6 6 8 8 5 4 5 6 8 11 12 12 11 9 6 4 4 7 10 15 20 24 27 29 30 31 32 32 32 32 32 32 32 32 32 33 33 33 32 32 32 32 32 31 31 30 30
28 27 26 26 25 25 25 25 26 28 29 29 29 29 28 26 24 23 24 22 18 11 7 8 8 8 8 8 9 11 11 14 16 17 14 7 3 1 2 2 5 8 6 2 1 1 1 4 7 9 10 9 7 5 6 8 10 13 17 20 23 25 27 28 29 29 29 30 30 31 31 31 31 31 32 32 32 32 32 32 32 32 31 31 30 29
27 26 25 25 25 25 25 26 27 28 29 29 29 28 27 26 26 25 24 21 16 12 10 9 9 9 8 7 6 5 5 11 14 15 13 6 5 7 8 5 5 8 8 5 3 0 1 1 2 4 8 7 5 4 6 8 11 13 16 18 20 22 23 24 25 26 26 27 27 28 29 29 30 30 31 31 32 32 32 32 31 31 31 31 29 28
26 25 25 25 26 26 26 26 27 27 28 28 28 28 27 26 26 25 24 21 19 16 14 13 13 12 10 8 7 6 6 14 18 19 17 10 9 12 13 8 5 6 8 9 5 1 0 0 2 2 4 5 4 3 5 7 10 12 14 16 18 19 20 21 22 23 23 24 24 25 26 27 28 29 30 31 31 32 31 30 30 30 31 31 30 28
26 26 26 26 26 26 24 25 25 26 26 27 27 27 27 26 26 25 24 23 22 20 17 16 15 13 11 10 9 9 13 20 22 21 18 14 10 10 11 8 6 5 6 7 5 1 0 1 1 2 1 2 2 2 3 5 8 11 13 16 17 18 19 20 20 21 22 22 23 24 25 26 27 28 29 30 30 31 30 29 28 29 31 31 30 29
26 27 26 25 24 24 24 25 25 24 25 25 26 26 26 26 25 25 25 24 24 23 20 18 16 13 12 9 8 11 17 22 21 18 17 15 11 9 10 9 8 6 3 2 2 1 1 1 1 1 1 1 1 1 2 4 7 10 13 15 17 17 18 19 20 21 22 23 23 24 25 25 26 27 28 28 29 29 28 27 27 29 31 31 31 29
26 26 24 23 22 22 23 24 23 22 23 24 25 26 27 26 26 26 26 25 25 25 24 22 20 18 16 11 8 10 16 20 19 18 17 17 15 13 13 12 11 8 3 1 2 2 1 0 1 1 2 3 3 2 2 4 7 10 13 15 16 16 18 20 21 22 23 24 25 25 26 26 26 26 26 27 27 27 26 26 26 28 30 30 30 29
25 24 23 22 21 22 23 24 23 22 22 22 24 26 27 27 26 26 26 26 27 26 26 26 25 24 22 19 16 14 17 20 21 22 22 21 20 17 15 14 15 13 7 3 2 3 2 2 2 3 3 3 3 3 3 6 9 11 13 15 15 16 18 20 22 23 24 25 25 26 26 27 27 26 26 26 26 25 25 25 26 27 29 29 28 28
22 21 21 22 23 22 22 23 23 22 21 21 23 25 26 26 27 28 28 28 29 28 28 28 27 26 26 25 24 22 22 24 26 27 27 25 24 21 17 17 18 17 12 7 4 3 3 3 3 3 3 2 2 2 3 8 10 12 13 14 16 17 18 20 23 24 25 25 26 26 27 27 27 26 26 25 25 24 24 24 25 26 27 27 27 27
19 19 20 22 23 22 23 24 24 23 23 23 24 26 28 28 30 30 30 30 30 29 29 28 28 28 27 26 26 26 26 26 27 27 26 24 23 20 18 19 20 19 17 14 11 7 5 4 4 4 3 2 2 4 6 9 10 11 13 15 17 18 19 21 23 24 25 26 26 26 26 26 27 26 25 25 25 24 24 24 24 24 25 25 25 25
18 19 20 22 22 22 22 23 24 26 27 28 30 31 30 31 31 30 30 29 29 28 28 27 27 27 27 26 25 23 22 20 20 19 19 19 19 19 18 18 18 18 17 16 13 10 7 4 4 4 4 3 3 4 7 9 11 12 14 16 17 17 19 21 23 24 25 25 25 25 25 26 26 25 25 25 25 26 26 25 25 25 25 24 24 23
18 19 21 23 24 24 24 23 25 27 30 31 32 32 30 29 28 28 28 27 27 26 26 26 26 26 25 23 21 18 16 15 14 15 15 15 16 16 17 17 16 15 13 11 11 10 8 5 3 4 5 4 4 4 5 8 11 14 15 11 9 10 15 19 22 23 25 25 25 25 25 25 25 24 24 25 25 26 27 27 26 26 27 26 25 23
19 19 21 25 26 25 24 25 26 28 30 30 29 28 27 25 24 23 23 24 24 24 24 24 23 22 21 19 16 13 12 11 12 12 12 13 12 11 11 13 13 11 9 8 9 9 9 7 5 5 5 5 6 6 6 8 12 15 14 9 7 10 15 18 20 22 23 24 24 25 25 24 23 23 23 24 25 26 27 27 27 27 27 27 27 25
22 22 23 25 26 26 26 27 28 28 28 27 25 23 23 22 21 20 20 19 20 21 21 20 18 16 15 15 13 11 9 9 10 10 10 10 9 7 5 5 6 8 10 10 10 9 9 9 8 7 8 8 7 5 5 8 11 12 12 11 13 14 15 16 19 21 22 23 23 23 23 23 22 22 23 24 25 26 27 27 27 27 28 28 28 26
22 24 25 25 25 25 25 25 25 25 24 23 22 22 22 22 22 20 19 17 18 19 19 18 16 13 10 9 9 9 9 8 9 9 10 10 8 6 3 1 3 7 9 11 10 9 9 9 9 9 10 12 11 7 6 7 8 10 11 14 15 12 6 9 15 20 21 22 22 22 22 22 22 22 23 24 25 26 26 26 26 26 27 28 28 27
23 24 25 25 24 24 24 23 22 22 22 21 21 22 23 24 23 21 19 18 18 18 18 17 15 12 8 6 5 6 7 8 9 10 10 10 9 8 6 6 6 6 8 9 9 8 9 8 8 8 10 12 12 10 8 7 8 9 11 13 13 10 6 9 14 19 20 21 21 21 22 22 23 23 23 24 24 24 24 24 25 25 25 26 27 27
23 24 25 25 25 23 22 22 22 22 22 20 20 20 22 23 23 21 19 18 18 17 16 15 12 7 3 2 2 4 5 6 8 11 12 12 12 11 11 11 10 10 10 10 10 9 8 7 7 9 11 12 12 10 8 8 9 10 10 11 12 13 14 16 18 19 19 20 20 20 20 21 22 22 22 21 21 22 22 23 23 24 24 24 24 25
23 24 25 25 24 23 22 21 21 22 21 21 20 21 21 23 23 22 20 18 16 15 15 13 8 3 1 1 1 2 3 4 6 9 11 14 15 15 15 15 15 15 15 15 15 13 12 10 9 10 12 12 11 10 10 10 10 10 11 12 14 15 15 16 17 18 19 20 20 20 20 20 21 20 18 18 18 19 20 20 21 22 22 23 23 23
25 25 25 24 23 22 21 20 20 20 20 19 20 21 21 21 21 20 19 17 15 13 12 10 6 2 1 0 0 1 1 2 4 6 8 11 14 16 18 19 19 20 20 20 20 19 17 15 13 12 12 9 6 6 8 11 12 11 11 13 14 14 13 13 15 17 18 19 19 20 20 19 18 17 17 17 16 16 16 17 18 19 20 21 22 22
25 26 25 24 22 20 19 19 20 19 19 19 20 20 20 20 19 18 16 16 15 13 9 6 3 1 0 1 2 2 2 2 3 5 6 8 10 12 14 16 18 21 22 23 23 22 20 18 16 14 12 10 6 4 6 10 12 12 13 14 14 13 12 12 15 17 18 19 19 20 20 18 17 17 17 16 14 13 13 14 16 16 17 18 19 20
25 25 25 24 21 18 18 19 19 19 18 18 18 18 18 20 19 18 17 16 14 11 7 3 1 0 0 1 3 4 4 4 4 5 6 7 8 9 10 11 12 15 17 20 22 23 23 22 20 17 14 12 10 9 9 11 12 13 14 15 15 14 13 13 15 17 18 19 19 19 19 19 19 19 18 14 12 11 13 14 15 15 16 17 18 18
25 25 24 22 19 17 18 19 19 18 18 17 17 17 18 19 19 19 18 15 12 8 5 3 1 1 1 2 3 4 4 4 4 5 6 7 7 7 7 8 8 8 9 11 13 15 16 17 19 19 17 14 13 12 12 12 13 14 14 14 15 15 14 14 15 17 18 18 18 18 18 18 18 19 18 14 11 11 12 13 14 15 16 16 17 18
25 24 23 21 19 19 19 19 18 17 17 16 16 16 16 17 17 17 16 13 9 7 5 4 2 1 2 2 3 4 4 4 4 4 5 6 7 7 8 8 7 6 4 3 4 4 4 5 8 12 15 15 12 11 14 14 14 14 11 12 14 16 16 16 16 17 17 17 17 17 17 17 17 17 17 15 11 8 8 10 12 14 16 16 17 17
Wind_Direction
301 301 302 303 302 300 299 299 300 299 299 299 299 300 302 302 302 302 302 302 301 299 297 295 294 294 294 295 295 295 295 295 296 296 296 295 294 292 291 291 290 290 289 287 286 284 282 281 280 279 279 278 277 275 273 269 266 263 260 259 259 260 261 259 257 256 254 253 251 250 247 244 241 239 238 237 236 234 233 232 230 228 226 223 222 222
302 302 301 302 301 300 299 300 300 300 300 300 300 300 301 301 302 302 302 301 301 299 298 297 297 297 297 297 297 297 298 299 299 298 297 295 294 293 292 292 292 291 290 289 287 285 284 283 282 281 281 281 280 278 275 271 267 263 260 259 258 259 260 259 257 255 253 252 251 250 248 245 242 240 238 237 235 234 232 231 229 227 225 223 221 220
305 304 302 302 302 303 302 301 301 302 302 301 301 301 301 301 300 300 299 298 298 297 296 294 295 295 295 296 296 297 298 300 300 299 298 296 295 294 294 294 294 294 292 291 289 287 286 284 283 283 282 282 281 280 277 273 269 264 262 261 260 260 260 259 258 256 253 252 250 249 248 246 243 240 238 237 236 233 231 229 227 225 223 222 220 219
304 303 303 302 302 300 298 297 298 300 301 301 300 300 300 299 298 297 297 297 297 296 295 294 294 293 293 294 294 295 297 297 298 297 297 296 296 295 296 296 296 295 294 292 291 289 287 286 285 284 283 282 282 280 278 275 271 267 265 264 264 262 260 259 258 256 254 252 250 249 248 246 243 240 238 236 235 233 230 228 226 224 223 222 221 218
301 301 301 302 301 299 294 295 297 299 300 300 299 299 299 298 298 298 297 298 297 296 295 295 295 295 294 294 294 295 296 296 296 296 295 295 295 295 296 296 296 295 294 293 291 290 288 287 286 285 284 283 282 281 278 276 273 270 268 268 267 265 262 260 258 257 255 252 251 249 248 247 244 241 238 236 234 233 231 229 227 225 224 223 222 219
299 298 298 298 299 297 293 294 297 298 299 299 298 298 298 298 298 298 298 297 296 294 292 292 292 291 291 291 292 294 295 295 294 293 293 292 293 294 296 296 296 295 294 293 292 290 289 288 287 286 286 285 283 282 279 277 274 272 270 269 268 266 263 260 258 257 254 252 251 250 249 247 246 243 240 237 235 234 234 233 231 228 226 225 222 219
296 296 296 295 293 291 290 291 294 296 296 299 299 298 297 296 296 295 294 293 292 291 290 288 287 287 287 288 290 291 292 293 294 294 294 293 294 296 298 298 297 296 295 293 291 290 289 288 287 287 287 286 285 283 281 278 275 273 271 270 268 266 263 260 258 256 254 252 250 249 248 247 246 244 241 238 236 235 235 234 232 229 226 225 222 219
295 295 295 294 293 292 290 290 291 292 293 297 299 299 298 296 294 292 291 291 290 290 289 289 289 289 290 292 293 294 296 300 303 304 302 300 300 300 300 299 298 296 294 292 290 288 287 287 287 287 287 287 286 285 283 280 277 274 272 270 268 265 262 260 257 255 254 252 251 249 247 246 245 243 241 238 236 234 233 232 229 227 225 224 221 217
292 294 295 294 294 294 294 293 291 290 290 293 295 297 298 298 297 295 294 292 291 290 292 295 297 298 298 300 300 300 301 304 306 307 305 303 301 300 298 297 295 294 292 290 288 287 286 286 286 287 288 288 288 287 285 282 279 276 273 271 268 265 262 260 257 255 254 253 251 249 247 245 243 241 240 238 235 233 231 229 226 224 223 223 219 212
288 292 295 294 291 290 292 294 293 291 290 291 292 292 294 296 297 298 297 295 294 295 296 299 300 299 298 298 297 297 298 299 299 299 299 298 298 297 295 293 291 290 289 288 288 287 287 286 286 287 288 289 290 290 288 286 282 278 275 272 270 267 264 261 259 257 255 253 251 249 247 244 242 240 238 237 235 233 231 228 225 223 222 221 215 205
289 292 294 293 291 287 287 289 290 290 290 291 292 291 291 292 294 296 296 296 296 297 296 296 294 293 292 292 292 292 292 292 293 293 293 294 295 294 292 289 287 285 286 287 287 287 287 287 287 288 289 290 291 292 291 289 286 282 278 275 272 269 267 264 262 259 257 254 251 249 246 244 241 239 237 236 235 233 231 227 225 223 223 218 208 197
291 293 293 293 292 291 290 289 289 289 291 293 294 294 293 293 292 292 291 292 294 295 295 294 291 288 286 287 289 290 291 290 290 290 291 293 294 293 290 286 284 284 286 287 288 288 287 287 288 289 290 291 292 293 294 293 290 287 282 279 276 273 270 267 264 261 258 254 251 248 246 243 241 239 237 235 234 232 230 227 226 224 220 211 199 190
294 294 294 293 292 292 292 292 293 294 295 295 294 292 293 293 292 289 287 286 287 289 291 292 290 287 285 285 288 291 294 295 295 295 295 293 293 292 290 288 287 288 289 290 289 289 289 289 290 291 291 292 294 295 296 295 294 291 287 283 280 276 274 271 267 264 259 255 252 249 246 243 241 239 236 234 233 231 229 227 226 224 214 201 191 185
297 297 295 293 290 290 291 292 293 293 293 293 291 289 290 290 289 287 285 283 284 286 287 288 289 289 289 290 293 295 297 298 297 296 294 290 289 289 289 288 290 291 292 290 289 289 290 291 292 293 293 294 294 295 296 296 296 294 291 287 283 280 276 273 270 266 262 258 254 250 247 244 241 239 236 233 231 229 227 226 224 217 203 192 185 183
299 297 293 289 288 289 291 291 290 289 289 290 289 287 287 286 285 285 283 282 285 287 287 287 289 291 292 292 292 293 293 291 288 286 284 283 284 286 286 284 285 288 290 289 288 289 291 292 293 293 294 294 294 294 294 295 295 294 292 290 286 283 279 275 272 269 265 261 257 253 250 246 242 239 235 232 230 228 225 221 214 202 191 185 183 183
299 296 289 288 288 290 291 290 288 286 287 287 287 286 285 283 282 282 280 280 283 287 287 287 289 291 291 291 292 291 288 282 278 277 280 283 289 292 293 290 289 289 290 290 290 291 292 293 293 292 292 292 292 293 292 291 291 292 291 290 288 284 281 277 274 271 267 264 260 256 252 247 243 239 234 230 227 223 218 212 201 190 183 181 182 183
297 294 288 286 285 288 291 289 286 284 285 285 285 283 280 278 277 278 278 279 282 284 282 281 282 283 287 292 294 293 289 288 291 297 301 302 305 307 308 304 298 294 293 293 292 291 291 291 291 290 289 290 290 290 289 288 288 287 287 286 285 283 280 277 275 272 269 266 262 257 252 247 242 237 232 226 219 213 208 200 190 183 180 180 181 181
295 293 290 285 285 288 289 288 286 284 283 283 283 282 280 277 277 278 278 278 278 278 276 273 271 272 281 286 290 292 297 311 320 321 314 305 302 303 304 302 298 294 291 289 288 288 288 288 288 288 287 288 288 287 287 286 286 285 285 284 282 280 278 276 274 273 271 267 263 258 252 246 240 234 227 218 209 203 197 189 183 180 179 179 179 179
294 293 291 288 286 286 285 284 284 283 282 280 281 281 280 278 278 279 279 278 276 274 274 272 270 268 272 273 285 290 296 304 307 304 298 293 289 288 289 289 286 283 282 281 282 283 284 285 286 286 286 287 287 286 286 286 286 286 284 283 281 279 277 275 274 273 272 269 264 258 251 244 237 228 219 208 199 192 187 182 179 178 178 177 177 177
294 292 289 285 283 282 280 279 280 281 281 279 279 279 278 278 279 280 280 281 281 280 278 275 272 275 279 282 287 291 295 298 296 291 285 282 281 282 283 280 276 273 274 275 276 278 280 282 283 285 285 286 286 286 286 286 286 285 284 282 280 278 276 275 275 274 272 269 265 258 250 240 229 219 208 198 191 186 182 179 178 177 176 175 175 174
290 286 283 280 278 276 276 277 279 281 282 283 282 281 282 285 288 291 292 293 293 292 290 287 285 287 289 289 290 292 296 296 292 287 283 279 279 280 281 278 272 267 267 270 273 277 279 280 282 283 285 285 285 285 286 286 286 285 284 281 279 278 277 276 275 273 271 268 263 255 244 231 217 205 196 189 184 181 178 177 175 173 172 171 170 169
286 283 282 280 277 275 275 276 279 282 286 290 292 294 298 302 305 306 305 303 300 297 294 291 290 290 290 289 289 291 293 291 286 281 280 277 275 278 280 278 271 265 263 267 273 277 280 280 281 282 284 285 285 286 286 286 285 284 282 280 279 278 277 276 274 271 269 264 256 244 229 213 200 190 183 179 177 175 174 172 170 168 166 165 165 165
284 282 283 283 281 279 280 282 285 290 298 303 306 308 309 308 305 302 300 298 296 293 290 290 289 288 286 286 286 287 287 285 279 274 271 266 266 275 280 278 270 262 261 268 275 279 280 280 280 281 282 283 284 285 286 286 285 283 281 279 278 277 275 273 269 265 259 250 236 218 202 190 183 177 174 171 170 168 167 165 163 162 161 161 161 162
286 284 285 285 286 286 288 291 296 302 307 308 307 305 303 300 298 296 295 293 291 289 288 288 287 284 283 283 284 284 283 281 275 269 261 253 266 276 282 281 273 264 266 275 279 279 278 277 278 280 281 283 284 286 286 286 285 282 280 277 275 272 267 262 255 245 232 214 197 183 175 171 168 166 165 164 163 162 161 160 158 157 157 157 157 158
290 289 290 291 291 292 293 297 302 305 305 304 303 301 300 299 298 296 294 292 289 286 284 281 280 281 286 288 288 291 295 298 292 283 276 266 271 282 286 287 279 271 274 280 281 278 274 275 277 280 282 284 286 287 287 286 284 280 276 272 266 258 247 233 217 201 187 176 167 162 160 159 158 158 158 158 158 157 156 155 153 152 152 152 153 155
294 295 295 295 294 294 294 296 298 299 300 300 299 299 300 300 300 298 295 291 288 286 285 285 287 296 304 308 307 305 306 310 311 307 301 296 282 285 287 287 281 273 272 276 277 274 273 275 278 281 283 286 288 288 288 285 280 273 266 257 244 228 209 190 175 166 162 158 155 154 153 153 153 153 153 153 152 152 151 151 150 150 149 149 150 153
298 299 297 295 293 293 293 294 295 297 298 298 298 298 300 301 302 299 295 295 299 304 308 309 305 303 304 300 296 296 297 299 299 298 295 290 279 276 283 284 278 266 262 266 269 271 271 272 275 278 279 282 284 284 282 277 269 259 245 227 207 189 175 164 157 153 152 150 150 150 150 149 149 149 149 149 148 148 149 149 149 148 148 149 151 155
302 300 297 293 291 290 292 293 295 297 298 298 298 299 300 301 301 299 296 300 305 307 303 297 296 296 296 292 292 294 294 293 293 292 289 281 268 263 274 278 267 249 250 258 267 269 265 261 263 266 268 270 270 269 267 260 245 227 207 188 175 166 160 155 151 149 148 147 147 148 148 148 147 147 147 147 148 148 149 149 148 148 148 151 154 158
304 301 297 293 291 290 292 293 294 296 297 298 299 300 300 298 296 293 291 292 292 290 285 285 288 293 296 297 297 296 293 289 290 291 288 274 255 255 269 269 254 247 250 255 272 272 256 249 249 251 252 253 247 235 212 185 175 169 163 160 156 153 152 149 148 147 147 146 147 147 147 147 147 147 147 148 149 149 149 149 149 150 151 153 155 158
306 303 300 296 293 292 292 293 295 297 298 299 300 301 299 296 292 288 286 284 282 281 286 292 295 295 296 296 296 291 285 283 291 298 296 278 242 244 286 269 256 251 239 207 88 0 261 250 245 243 243 241 227 191 149 136 137 141 143 144 145 145 146 146 146 146 146 147 148 149 149 148 148 148 149 150 150 150 150 150 151 152 153 154 155 157
305 302 298 296 295 294 295 295 297 298 298 299 301 301 299 296 291 287 284 283 285 290 296 296 294 291 288 288 287 281 275 279 292 306 314 297 273 283 289 286 268 254 231 184 156 303 312 311 277 256 247 242 223 181 149 138 137 139 141 142 142 143 144 146 146 147 148 150 152 152 152 151 151 151 151 151 151 151 152 152 152 152 154 154 154 156
304 299 294 292 293 295 296 297 298 298 297 298 299 299 298 296 292 288 285 286 289 292 290 289 287 285 280 273 268 267 272 278 286 296 304 292 278 279 281 280 275 258 234 198 183 180 267 1 17 338 264 256 241 202 163 146 144 145 147 148 148 149 151 152 152 152 152 153 154 155 154 153 153 152 152 152 152 153 153 153 153 153 154 154 155 156
300 295 291 289 291 294 296 298 298 297 296 296 297 297 297 295 293 290 289 288 288 288 284 283 283 283 280 273 266 265 271 277 284 291 294 289 280 277 280 279 280 271 244 208 198 203 179 136 58 31 298 262 252 221 171 152 148 148 151 152 153 155 157 158 157 156 157 157 156 155 154 153 153 152 152 153 154 155 155 155 155 155 156 156 156 157
298 294 290 289 292 296 300 301 299 295 293 295 297 298 298 295 293 291 290 289 289 287 283 279 278 279 280 276 269 269 274 277 284 291 295 292 287 285 289 287 286 281 263 196 168 143 53 87 104 91 88 113 151 177 147 143 146 151 153 152 152 154 156 157 157 157 157 157 156 155 153 153 153 153 153 154 155 156 157 156 157 158 159 159 158 158
298 295 292 294 299 304 306 305 301 296 294 296 298 300 300 298 295 292 291 291 291 290 287 283 279 276 275 274 273 274 276 281 287 294 296 294 292 292 293 289 285 282 268 188 144 130 106 173 174 154 120 94 86 97 129 138 146 153 156 154 152 151 153 154 154 154 153 153 153 152 152 152 152 153 155 156 157 158 158 157 158 160 162 162 161 161
298 296 297 302 307 310 309 309 307 303 300 298 300 302 301 300 297 295 294 294 293 292 291 288 285 281 277 273 270 272 277 284 290 292 292 291 290 289 286 283 280 277 269 239 188 174 165 167 172 164 143 116 83 72 108 140 149 153 154 153 152 150 151 153 153 152 150 149 149 150 151 152 153 155 157 158 159 159 158 156 158 161 164 164 165 165
296 296 301 307 310 310 309 310 310 308 306 302 301 302 302 301 299 298 296 295 295 294 293 292 289 286 282 277 273 271 275 282 287 289 289 289 286 282 277 275 273 270 261 248 225 194 178 162 158 158 149 131 110 97 115 131 136 138 139 145 147 147 149 152 153 152 150 149 149 151 153 154 155 156 158 159 159 158 156 154 157 161 165 166 168 169
295 298 304 309 311 310 309 309 310 310 308 304 303 303 302 301 300 299 298 297 296 295 294 293 292 290 287 282 277 274 277 282 287 290 291 290 286 278 270 269 268 263 255 246 234 217 188 167 161 161 152 119 110 125 136 134 129 125 127 137 142 145 148 152 154 154 152 150 151 153 155 156 157 158 158 159 159 158 155 154 155 159 164 166 169 171
299 301 306 310 311 309 308 307 308 308 307 306 305 304 302 301 300 299 298 298 297 296 295 294 292 291 289 284 281 280 284 290 295 298 300 298 290 279 269 264 262 258 250 240 228 213 194 175 166 163 151 128 116 128 139 141 137 132 131 131 132 138 145 151 154 155 154 153 152 153 156 158 159 159 159 160 160 158 156 155 156 158 161 163 166 169
300 303 306 310 310 309 306 303 302 304 306 305 304 304 303 301 300 300 300 300 300 299 298 297 294 291 287 284 283 286 293 301 307 310 311 309 301 289 275 264 257 251 241 225 209 198 187 176 161 152 145 139 138 142 145 148 148 144 138 128 115 118 134 145 151 154 156 155 154 155 157 160 161 161 161 161 161 160 159 158 158 159 162 162 163 163
303 304 305 308 308 304 300 298 299 302 304 304 304 303 302 300 300 301 301 302 302 302 301 299 295 290 286 284 285 291 303 315 322 325 325 321 313 299 282 262 248 232 206 184 174 172 171 163 151 143 142 143 145 147 149 155 157 154 146 138 121 121 129 137 144 150 154 155 155 156 157 159 161 161 161 161 162 162 162 161 160 161 163 165 164 163
304 304 304 305 305 302 299 300 302 304 304 304 302 301 300 300 300 299 300 300 301 302 302 298 292 285 280 282 287 297 313 330 339 343 343 338 331 318 295 254 221 197 173 157 147 146 149 149 148 148 150 150 148 143 145 154 158 157 149 138 129 124 121 126 136 143 147 149 152 153 154 154 155 156 157 158 160 162 164 164 164 164 165 166 167 168
302 303 303 300 297 295 296 299 303 305 305 304 302 301 301 301 301 300 299 298 299 300 299 295 288 281 273 275 284 299 319 340 355 2 3 1 358 359 11 96 155 162 159 146 135 128 129 133 137 144 151 154 151 144 139 141 140 138 138 139 134 125 105 112 128 136 138 142 145 148 149 149 149 149 151 152 154 157 160 162 164 166 167 168 170 171
301 301 301 298 295 296 299 301 304 306 306 304 303 302 303 303 303 302 300 298 298 297 295 292 286 277 264 263 277 298 319 343 5 18 22 23 24 31 49 71 94 116 130 128 124 119 116 112 113 123 139 146 146 143 138 133 127 126 130 136 135 128 121 130 132 131 132 136 140 144 147 148 147 146 145 145 147 150 154 157 160 163 166 170 171 172
302 303 303 301 301 301 304 305 306 307 307 305 302 301 302 304 305 304 300 298 296 294 292 289 284 272 243 236 269 301 319 342 3 19 29 36 43 49 58 66 76 87 96 98 100 104 105 102 102 110 120 125 127 127 127 127 124 119 117 118 117 117 122 132 134 132 130 132 137 142 146 149 147 143 139 138 140 144 149 153 155 158 162 166 169 171
307 307 307 305 304 304 305 306 308 309 307 305 303 302 303 305 306 305 302 297 294 291 290 287 281 259 210 243 292 323 335 347 1 14 25 35 46 55 62 67 72 77 80 82 85 88 90 93 99 106 109 108 104 104 113 121 122 116 110 110 109 111 117 124 129 133 136 137 139 143 147 150 148 142 134 134 138 143 148 152 154 156 159 162 165 166
310 309 307 306 305 304 305 307 309 309 308 306 305 305 305 306 306 306 303 300 296 293 291 288 279 256 234 266 14 29 13 7 9 14 22 31 42 52 60 66 71 75 77 78 78 79 80 83 90 101 108 106 96 87 98 108 114 117 117 117 116 115 114 118 127 136 142 143 144 147 150 150 146 141 138 137 139 144 150 156 159 161 163 164 166 166
309 308 306 305 304 304 306 310 311 310 309 307 307 306 306 308 308 308 306 303 300 298 294 290 281 256 273 26 49 53 49 40 25 22 25 30 39 48 57 63 68 72 75 76 75 74 73 75 79 87 98 102 103 99 98 101 108 116 122 124 123 121 119 124 133 140 146 148 151 153 155 154 149 144 141 138 137 141 149 158 165 169 172 173 174 174
306 306 305 304 304 305 308 311 312 311 309 308 308 308 308 311 312 312 309 306 302 298 294 295 297 312 48 60 60 57 51 44 36 31 30 32 37 44 50 57 63 68 71 72 73 72 70 68 67 71 81 91 101 108 108 106 109 115 121 124 126 126 127 130 137 142 147 149 153 157 159 161 161 158 150 141 134 138 147 157 166 173 178 181 183 185
305 304 303 303 303 306 309 311 312 311 309 309 310 311 312 314 315 315 312 308 304 300 302 313 331 23 71 70 65 60 53 44 38 34 32 32 33 33 35 40 47 55 62 66 67 66 64 62 59 59 63 77 95 108 113 113 114 115 116 120 126 130 131 133 138 143 147 149 152 157 160 162 164 163 157 147 139 140 147 156 164 172 181 186 188 191
306 305 303 303 304 307 309 311 311 310 309 309 310 312 313 315 316 316 315 312 311 313 322 338 1 43 76 77 69 63 55 48 41 35 29 29 30 29 25 24 23 24 30 39 35 30 35 48 51 49 50 55 71 106 127 125 121 116 112 117 125 131 132 134 138 142 145 147 151 155 157 157 158 159 157 150 143 139 145 157 165 172 181 186 190 192